[[{"header":{"parameterUnit":"m.s-1","parameterCategory":1,"la1":30.2991,"la2":30.254,"lo1":-89.0895,"lo2":-89.0444,"dy":0.0017,"dx":0.0017,"nx":28,"ny":28,"refTime":"2025-03-27T09:00:00:Z","depth":0,"parameterNumber":2,"parameterNumberName":"U-component_of_WINDS"},"data":[0,0,0,0,0,0,0,0,0,0,0,0,0,0,0,0,0,0,0,0,0,0,0,0,0,0,0,0,0,0,0,0,0,0,0,0,0,0,0,0,0,0,0,0,0,0,0,0,0,0,0,0,0,0,0,0,0,0,-3.2637,-3.2638,0,-3.2727,-3.2728,-3.2729,-3.2726,-3.2725,-3.2724,-3.2723,-3.2816,-3.2819,-3.2823,0,0,0,0,0,0,0,0,0,0,0,0,0,-3.2463,-3.2466,-3.2636,-3.2638,-3.2639,-3.2727,-3.2728,-3.273,-3.2727,-3.2725,-3.2723,-3.2722,-3.2815,-3.2819,-3.2823,0,0,0,0,0,0,0,0,0,0,0,0,0,-3.2545,-3.2467,-3.2636,-3.2648,-3.265,-3.2727,-3.2728,-3.273,-3.2727,-3.2725,-3.2723,-3.2721,-3.2813,-3.2818,-3.2824,-3.2895,0,0,-3.2841,-3.2843,0,0,0,0,0,0,0,0,-3.254,-3.2551,-3.2645,-3.2647,-3.265,-3.2714,-3.2701,-3.2785,-3.2727,-3.2698,-3.2723,-3.272,-3.2783,-3.2791,-3.2812,-3.29,-3.2904,-3.2841,-3.2844,-3.2847,-3.2848,0,0,0,0,0,0,0,-3.2534,-3.2547,-3.2672,-3.2646,-3.2649,-3.2649,-3.2659,-3.2717,-3.275,-3.27,-3.27,-3.2711,-3.2784,-3.2807,-3.2814,-3.2905,-3.2841,-3.2846,-3.2849,-3.2851,-3.3059,-3.3061,0,0,0,0,0,0,-3.2526,-3.2542,-3.2669,-3.2675,-3.2589,-3.2654,-3.2665,-3.2695,-3.2749,-3.2756,-3.2712,-3.271,-3.2799,-3.2808,-3.2818,-3.2907,-3.2847,-3.2852,-3.2855,-3.3057,-3.306,-3.3062,0,0,0,0,0,0,-3.2522,-3.2537,-3.2666,-3.2609,-3.2625,-3.2659,-3.2693,-3.2698,-3.272,-3.2759,-3.2764,-3.2729,-3.2797,-3.281,-3.2877,-3.291,-3.2854,-3.2859,-3.3054,-3.3058,-3.3061,-3.3084,0,0,0,0,0,0,-3.2517,-3.2536,-3.2563,-3.2609,-3.2628,-3.2723,-3.2695,-3.2701,-3.273,-3.2728,-3.2776,-3.2782,-3.2797,-3.2869,-3.2882,-3.2916,-3.2864,-3.3051,-3.3056,-3.306,-3.3081,-3.3088,-3.3094,0,0,0,0,0,-3.2511,-3.2565,-3.2564,-3.2579,-3.2662,-3.2724,-3.2735,-3.2751,-3.2732,-3.276,-3.2785,-3.2781,-3.2904,-3.2875,-3.2891,-3.2927,-3.3049,-3.3055,-3.3059,-3.3078,-3.3087,-3.3094,0,0,0,0,0,0,-3.2521,-3.2571,-3.2571,-3.2641,-3.2679,-3.2724,-3.2759,-3.2759,-3.2803,-3.2799,-3.2817,-3.2828,-3.2895,-3.2918,-3.2885,-3.3001,-3.2975,-3.2983,-3.2983,-3.2992,-3.2999,-3.2992,-3.2868,0,0,0,0,0,-3.2531,-3.2577,-3.2619,-3.2677,-3.2696,-3.2725,-3.2752,-3.2761,-3.2801,-3.2816,-3.2846,-3.2885,-3.2933,-3.2964,-3.301,-3.3084,-3.3096,-3.3117,-3.3124,-3.3129,-3.3136,-3.318,-3.3191,-3.3078,-3.3078,-3.3078,0,0,-3.2553,-3.2586,-3.2614,-3.268,-3.271,-3.2758,-3.2738,-3.2789,-3.2825,-3.2824,-3.2889,-3.2913,-3.2958,-3.3029,-3.3062,-3.305,-3.317,-3.3136,-3.314,-3.3144,-3.3186,-3.3197,-3.3207,-3.3082,-3.3081,-3.3081,0,0,-3.2617,-3.2646,-3.2699,-3.273,-3.2776,-3.2796,-3.2808,-3.2854,-3.287,-3.2936,-3.2937,-3.2981,-3.3062,-3.3095,-3.3122,-3.3203,-3.3201,-3.3217,-3.3253,-3.3295,-3.3304,-3.3312,-3.3342,-3.3353,-3.3224,-3.3224,-3.3224,0,-3.2638,-3.271,-3.2726,-3.2778,-3.2808,-3.2811,-3.2866,-3.2895,-3.2954,-3.2975,-3.2961,-3.3065,-3.3095,-3.3176,-3.3196,-3.3217,-3.3234,-3.3212,-3.3302,-3.331,-3.3317,-3.3346,-3.3358,-3.3226,-3.3226,-3.3226,-3.3226,0,-3.2734,-3.2785,-3.2822,-3.288,-3.2914,-3.2967,-3.2993,-3.3026,-3.3033,-3.3054,-3.3123,-3.3159,-3.3214,-3.3234,-3.324,-3.3317,-3.3308,-3.3298,-3.3272,-3.333,-3.3357,-3.3368,-3.3229,-3.3228,-3.3227,-3.3227,0,0,-3.2804,-3.2873,-3.2887,-3.2914,-3.2967,-3.3006,-3.3061,-3.3115,-3.3144,-3.3185,-3.3232,-3.3303,-3.3294,-3.3325,-3.3336,-3.3373,-3.3437,-3.3359,-3.336,-3.3373,-3.3526,-3.3533,-3.3546,-3.3437,-3.3439,-3.3441,-3.3522,0,-3.2875,-3.2971,-3.2989,-3.3073,-3.3121,-3.3126,-3.3174,-3.3212,-3.3234,-3.3279,-3.3303,-3.3354,-3.3338,-3.3357,-3.3394,-3.3422,-3.3468,-3.3416,-3.3482,-3.3484,-3.3471,-3.356,-3.3568,-3.3643,-3.3533,-3.3535,-3.3536,0,-3.2969,-3.3014,-3.3104,-3.3153,-3.3174,-3.3216,-3.3268,-3.3311,-3.3355,-3.3369,-3.3405,-3.3413,-3.3471,-3.3443,-3.3525,-3.3489,-3.3518,-3.3536,-3.3539,-3.3546,-3.3514,-3.357,-3.3667,-3.3678,-3.3553,-3.3552,-3.3551,0,-3.3013,-3.3096,-3.3161,-3.3184,-3.3243,-3.3273,-3.3299,-3.3342,-3.3374,-3.342,-3.3442,-3.3494,-3.3523,-3.3564,-3.3586,-3.3563,-3.3667,-3.3641,-3.3681,-3.3681,-3.3702,-3.3701,-3.3806,-3.372,-3.372,-3.372,-3.372,0,-3.309,-3.3145,-3.3182,-3.3222,-3.3284,-3.3305,-3.3367,-3.3392,-3.3431,-3.3477,-3.3485,-3.3528,-3.3554,-3.3602,-3.362,-3.3686,-3.3699,-3.3713,-3.3717,-3.3712,-3.3711,-3.3731,-3.3726,-3.3723,-3.3722,-3.3722,-3.3721,0,-3.3149,-3.3176,-3.3247,-3.3298,-3.3312,-3.3356,-3.34,-3.3439,-3.3463,-3.3521,-3.3536,-3.3572,-3.3629,-3.3656,-3.3725,-3.3738,-3.3814,-3.3814,-3.3799,-3.38,-3.384,-3.3836,-3.3962,-3.398,-3.3882,-3.3883,-3.3883,0,-3.3196,-3.3238,-3.3294,-3.3326,-3.3353,-3.3403,-3.3437,-3.3461,-3.3495,-3.3552,-3.3585,-3.3642,-3.3689,-3.378,-3.3813,-3.3868,-3.387,-3.391,-3.3878,-3.3873,-3.3872,-3.3869,-3.3875,-3.3916,-3.3917,-3.3918,-3.3918,0,-3.3277,-3.3289,-3.3337,-3.3391,-3.3431,-3.3475,-3.3517,-3.3543,-3.3574,-3.3613,-3.3671,-3.3708,-3.3781,-3.3838,-3.3895,-3.3923,-3.3927,-3.3929,-3.3941,-3.3937,-3.3927,-3.3934,-3.3815,-3.3925,-3.3925,-3.3924,-3.3924,-3.3923,-3.3332,-3.3371,-3.3418,-3.3472,-3.3507,-3.3547,-3.3588,-3.3617,-3.3666,-3.3727,-3.3739,-3.3802,-3.3848,-3.3926,-3.3956,-3.4006,-3.3997,-3.4015,-3.4019,-3.4023,-3.4026,-3.3919,-3.4017,-3.4017,-3.4016,-3.4016,-3.4016,0,-3.3415,-3.3446,-3.3495,-3.3556,-3.3599,-3.3599,-3.3648,-3.3684,-3.3739,-3.3782,-3.3829,-3.3898,-3.3955,-3.3993,-3.4051,-3.4084,-3.4088,-3.4099,-3.4097,-3.4104,-3.4031,-3.4014,-3.4095,-3.4095,-3.4095,-3.4095,-3.4095,-3.4095,-3.3463,-3.353,-3.3548,-3.3633,-3.3664,-3.3726,-3.3753,-3.3792,-3.3827,-3.3903,-3.395,-3.3976,-3.4018,-3.408,-3.4132,-3.4143,-3.4164,-3.4176,-3.4186,-3.4117,-3.4108,-3.41,-3.4085,-3.418,-3.418,-3.4254,-3.4255,-3.4256]},{"header":{"parameterUnit":"m.s-1","parameterCategory":1,"la1":30.2991,"la2":30.254,"lo1":-89.0895,"lo2":-89.0444,"dy":0.0017,"dx":0.0017,"nx":28,"ny":28,"refTime":"2025-03-27T09:00:00:Z","depth":0,"parameterNumber":3,"parameterNumberName":"V-component_of_WINDS"},"data":[0,0,0,0,0,0,0,0,0,0,0,0,0,0,0,0,0,0,0,0,0,0,0,0,0,0,0,0,0,0,0,0,0,0,0,0,0,0,0,0,0,0,0,0,0,0,0,0,0,0,0,0,0,0,0,0,0,0,-0.193,-0.193,0,-0.1936,-0.1936,-0.1936,-0.1909,-0.1908,-0.1907,-0.1906,-0.1913,-0.1914,-0.1915,0,0,0,0,0,0,0,0,0,0,0,0,0,-0.1894,-0.1894,-0.193,-0.193,-0.193,-0.1936,-0.1936,-0.1936,-0.1909,-0.1908,-0.1907,-0.1906,-0.1913,-0.1914,-0.1915,0,0,0,0,0,0,0,0,0,0,0,0,0,-0.1906,-0.1895,-0.193,-0.1917,-0.1916,-0.1936,-0.1936,-0.1936,-0.1909,-0.1908,-0.1907,-0.1905,-0.1912,-0.1914,-0.1915,-0.1948,0,0,-0.1919,-0.192,0,0,0,0,0,0,0,0,-0.1905,-0.1907,-0.1919,-0.1918,-0.1917,-0.192,-0.1926,-0.194,-0.1909,-0.1912,-0.1906,-0.1905,-0.1916,-0.1917,-0.1921,-0.1948,-0.1948,-0.1919,-0.192,-0.1921,-0.1921,0,0,0,0,0,0,0,-0.1904,-0.1906,-0.1932,-0.1919,-0.1918,-0.1911,-0.1911,-0.1928,-0.1921,-0.1911,-0.1909,-0.191,-0.1916,-0.192,-0.1921,-0.1948,-0.1919,-0.1921,-0.1921,-0.1922,-0.2002,-0.2003,0,0,0,0,0,0,-0.1905,-0.1906,-0.1932,-0.1932,-0.1908,-0.1912,-0.1913,-0.192,-0.192,-0.1919,-0.1911,-0.1909,-0.1918,-0.192,-0.1921,-0.196,-0.1921,-0.1922,-0.1923,-0.2001,-0.2002,-0.2004,0,0,0,0,0,0,-0.1904,-0.1908,-0.1932,-0.1919,-0.1921,-0.1914,-0.1923,-0.1921,-0.1925,-0.192,-0.1919,-0.1917,-0.1917,-0.1919,-0.1941,-0.1959,-0.1923,-0.1924,-0.1999,-0.2001,-0.2003,-0.2037,0,0,0,0,0,0,-0.1903,-0.1907,-0.192,-0.1919,-0.1922,-0.1952,-0.1924,-0.1922,-0.1928,-0.1925,-0.1926,-0.1925,-0.1916,-0.1939,-0.1943,-0.1961,-0.1925,-0.1997,-0.2,-0.2002,-0.2034,-0.2039,-0.2044,0,0,0,0,0,-0.1902,-0.1929,-0.1921,-0.1924,-0.1938,-0.1953,-0.1955,-0.1945,-0.1929,-0.1942,-0.1939,-0.1925,-0.1957,-0.1942,-0.1945,-0.1964,-0.1996,-0.1999,-0.2002,-0.2032,-0.2038,-0.2044,0,0,0,0,0,0,-0.1933,-0.1929,-0.192,-0.1947,-0.1951,-0.1948,-0.1964,-0.1952,-0.196,-0.1957,-0.1944,-0.1944,-0.1969,-0.1968,-0.1952,-0.1995,-0.1974,-0.1978,-0.1995,-0.2001,-0.2007,-0.2007,-0.1926,0,0,0,0,0,-0.1943,-0.1956,-0.1952,-0.1976,-0.1979,-0.1971,-0.1977,-0.1969,-0.1972,-0.1974,-0.1972,-0.1975,-0.1986,-0.1994,-0.2003,-0.2033,-0.2033,-0.2048,-0.2053,-0.2057,-0.2061,-0.2077,-0.2083,-0.2013,-0.2013,-0.2013,0,0,-0.1964,-0.1963,-0.1972,-0.1983,-0.1984,-0.1998,-0.1972,-0.1988,-0.1998,-0.1976,-0.1997,-0.1995,-0.1998,-0.2024,-0.2036,-0.2025,-0.208,-0.2061,-0.2064,-0.2066,-0.208,-0.2087,-0.2093,-0.2015,-0.2015,-0.2014,0,0,-0.2009,-0.201,-0.203,-0.2032,-0.2035,-0.203,-0.2035,-0.2034,-0.2032,-0.2053,-0.2036,-0.2048,-0.2067,-0.2069,-0.2073,-0.2118,-0.2106,-0.2122,-0.2149,-0.2165,-0.217,-0.2175,-0.2192,-0.2198,-0.2125,-0.2125,-0.2125,0,-0.2035,-0.2055,-0.2043,-0.2059,-0.2064,-0.2044,-0.2065,-0.2068,-0.2073,-0.2077,-0.2065,-0.2088,-0.2088,-0.2115,-0.2126,-0.2129,-0.2135,-0.2122,-0.217,-0.2175,-0.218,-0.2195,-0.2201,-0.2127,-0.2127,-0.2127,-0.2127,0,-0.2086,-0.21,-0.2116,-0.2122,-0.2129,-0.2148,-0.2138,-0.2146,-0.2137,-0.2133,-0.2154,-0.2154,-0.2163,-0.2169,-0.216,-0.2194,-0.2187,-0.2173,-0.2151,-0.2188,-0.2203,-0.2209,-0.213,-0.2129,-0.2129,-0.2128,0,0,-0.2152,-0.215,-0.2156,-0.2159,-0.216,-0.217,-0.2188,-0.2197,-0.2204,-0.2208,-0.2223,-0.2239,-0.2225,-0.223,-0.2221,-0.2235,-0.2271,-0.2218,-0.2218,-0.2229,-0.2308,-0.2319,-0.2326,-0.2262,-0.2263,-0.2264,-0.2308,0,-0.2196,-0.2226,-0.2216,-0.2246,-0.2259,-0.224,-0.2255,-0.2257,-0.2253,-0.2264,-0.2259,-0.2271,-0.2252,-0.2255,-0.2267,-0.2264,-0.2286,-0.226,-0.2275,-0.2276,-0.2276,-0.2334,-0.2346,-0.2388,-0.2313,-0.2314,-0.2315,0,-0.2253,-0.2259,-0.2291,-0.2289,-0.2294,-0.2308,-0.2315,-0.2325,-0.2327,-0.2323,-0.2328,-0.2316,-0.2333,-0.231,-0.2333,-0.2316,-0.2321,-0.232,-0.2321,-0.2323,-0.2298,-0.2338,-0.2401,-0.2407,-0.2324,-0.2323,-0.2322,0,-0.2298,-0.2314,-0.2335,-0.2338,-0.2337,-0.2347,-0.2347,-0.2347,-0.2353,-0.2359,-0.2363,-0.2371,-0.2375,-0.2381,-0.2372,-0.2356,-0.2396,-0.2373,-0.2394,-0.2394,-0.2404,-0.2404,-0.247,-0.2407,-0.2406,-0.2406,-0.2406,0,-0.2349,-0.237,-0.2356,-0.2369,-0.2391,-0.2378,-0.24,-0.2398,-0.2399,-0.2411,-0.2395,-0.2406,-0.2393,-0.2403,-0.2396,-0.2416,-0.2418,-0.2416,-0.2414,-0.2418,-0.2418,-0.2422,-0.2419,-0.2408,-0.2408,-0.2407,-0.2407,0,-0.2404,-0.2396,-0.2417,-0.2414,-0.2414,-0.243,-0.2427,-0.2439,-0.2434,-0.2449,-0.2452,-0.2444,-0.2456,-0.2447,-0.2458,-0.2453,-0.248,-0.2473,-0.2479,-0.2478,-0.25,-0.2498,-0.2571,-0.258,-0.251,-0.2511,-0.2511,0,-0.2438,-0.2453,-0.2451,-0.2458,-0.2459,-0.247,-0.2476,-0.2464,-0.247,-0.2473,-0.2485,-0.2495,-0.2502,-0.2521,-0.2516,-0.2525,-0.2519,-0.2544,-0.252,-0.2523,-0.252,-0.2519,-0.2521,-0.2549,-0.255,-0.255,-0.2551,0,-0.2498,-0.2493,-0.2502,-0.251,-0.2517,-0.2522,-0.2526,-0.2533,-0.252,-0.2528,-0.254,-0.2545,-0.2557,-0.2567,-0.2573,-0.2573,-0.256,-0.2558,-0.2563,-0.2568,-0.2571,-0.257,-0.2493,-0.2557,-0.2556,-0.2556,-0.2555,-0.2555,-0.2544,-0.2557,-0.2557,-0.2568,-0.2569,-0.2573,-0.2584,-0.258,-0.2589,-0.2597,-0.2589,-0.2603,-0.2604,-0.2611,-0.2613,-0.2623,-0.2613,-0.2621,-0.2623,-0.2625,-0.2629,-0.2569,-0.2624,-0.2624,-0.2624,-0.2624,-0.2624,0,-0.2604,-0.2604,-0.2613,-0.2619,-0.2627,-0.2613,-0.2617,-0.2625,-0.2637,-0.2639,-0.2646,-0.2659,-0.2669,-0.2665,-0.2673,-0.2682,-0.2677,-0.2685,-0.2685,-0.2685,-0.2637,-0.2632,-0.269,-0.269,-0.269,-0.2689,-0.2689,-0.2689,-0.2637,-0.2657,-0.2652,-0.2673,-0.2672,-0.2686,-0.2689,-0.2692,-0.2694,-0.2709,-0.2717,-0.2714,-0.2713,-0.2721,-0.2729,-0.2728,-0.2732,-0.2743,-0.2739,-0.2695,-0.2688,-0.2682,-0.2677,-0.2743,-0.2743,-0.2786,-0.2786,-0.2786]}]]